Simultaneous Nadir Overpasses (SNOs) Predictions

Prediction of SNOs between LANDSAT-8 and NPP Satellite Orbit:

Table of predicted SNOs for the next 14.0 days since TLE Epoch: 8/4/2017
Index Date (LANDSAT-8) Time (LANDSAT-8) Lat,Lon (LANDSAT-8) SZA (LANDSAT-8 ) Date (NPP) Time (NPP) Lat,Lon (NPP) SZA (NPP ) Distance(km) Time Diff (sec)
1 08/04/2017 22:25:13 70.77,-158.89 53.74 08/04/2017 22:24:05 70.82,-160.77 53.86 68.90 68
2 08/04/2017 23:14:53 -70.11, 7.77 126.89 08/04/2017 23:14:35 -70.09, 7.71 126.91 3.43 18
3 08/05/2017 00:04:21 69.96, 175.19 52.98 08/05/2017 00:05:19 69.98, 175.19 52.99 2.42 58
4 08/07/2017 14:41:53 70.17, -43.90 53.90 08/07/2017 14:40:49 70.16, -43.95 53.90 2.63 64
5 08/07/2017 15:31:23 -70.07, 123.58 126.20 08/07/2017 15:31:31 -70.06, 123.53 126.20 2.35 8
6 08/07/2017 16:20:58 69.52, -69.53 53.30 08/07/2017 16:22:07 69.52, -68.37 53.25 45.00 69
7 08/10/2017 06:58:24 70.12, 71.90 54.62 08/10/2017 06:57:46 70.13, 71.86 54.63 1.98 38
8 08/10/2017 07:47:54 -70.01,-120.61 125.48 08/10/2017 07:48:28 -70.02,-120.66 125.47 2.12 34
9 08/12/2017 22:25:19 -70.66, 20.94 124.08 08/12/2017 22:24:09 -70.73, 19.37 123.96 58.11 70
10 08/12/2017 23:14:55 70.06,-172.30 55.36 08/12/2017 23:14:42 70.05,-172.25 55.35 2.16 13
11 08/13/2017 00:04:25 -69.96, -4.81 124.74 08/13/2017 00:05:24 -69.94, -4.77 124.76 2.49 59
12 08/15/2017 14:41:58 -70.17, 136.08 123.73 08/15/2017 14:40:56 -70.17, 136.01 123.71 2.89 62
13 08/15/2017 15:31:25 70.05, -56.43 56.17 08/15/2017 15:31:39 70.02, -56.45 56.14 3.17 14
14 08/15/2017 16:21:03 -69.51, 110.45 124.33 08/15/2017 16:22:13 -69.49, 111.66 124.41 46.90 70
15 08/18/2017 06:58:28 -70.10,-108.13 122.95 08/18/2017 06:57:51 -70.09,-108.10 122.95 1.35 37
16 08/18/2017 07:47:55 69.98, 59.35 56.96 08/18/2017 07:48:35 70.00, 59.35 56.97 1.65 40




NCC Satellite Simultaneous Nadir Overpasses (SNOs) Prediction Service
